CAPE
10 12 18 30 33 35 37 35 36 46 55 43 49 52 32 33 0 44 50 59 59 67 53 57 15 44 44 56 41 55 31 52 30 24 14 0 16 13 11 15 17 2 12
12 37 22 50 49 53 48 49 59 59 45 46 57 57 29 11 0 17 1 16 28 42 43 53 50 69 48 48 41 41 13 1 4 0 4 9 1 9 26 22 39 54 35
22 16 26 36 40 46 27 42 56 57 49 40 33 30 48 42 46 17 3 10 40 45 45 30 11 12 7 0 5 7 8 12 17 33 1 21 8 6 5 10 24 35 66
11 10 22 5 35 11 54 36 50 51 39 27 6 7 9 16 0 0 0 50 51 22 8 4 1 0 0 0 8 18 26 39 11 23 39 26 17 11 8 2 0 13 34
14 11 19 0 49 19 29 16 32 4 12 11 7 4 2 8 1 1 16 28 13 14 1 0 0 0 0 0 0 0 3 4 21 13 14 13 14 17 21 24 10 13 15
2 12 10 13 11 5 6 4 1 1 6 14 18 19 17 1 0 0 1 0 0 10 32 29 34 26 31 6 0 2 0 0 0 0 17 1 30 11 0 0 2 13 2
3 6 8 7 3 4 6 5 7 50 25 26 25 10 3 0 0 0 0 35 11 24 35 15 0 10 0 0 0 0 32 15 20 2 22 29 23 5 1 1 0 6 15
2 5 5 1 3 11 7 18 50 82 62 42 50 43 14 0 0 0 0 40 62 49 8 0 0 0 0 0 0 0 39 40 42 69 31 29 3 3 10 14 18 18 29
8 6 4 2 0 3 15 36 87 91 73 76 75 3 21 0 0 0 0 29 65 42 1 0 0 0 0 0 4 18 32 55 5 0 0 0 0 2 1 0 18 7 2
3 0 3 3 21 49 68 70 89 79 69 29 45 11 0 0 0 0 0 0 3 12 26 12 0 0 0 0 0 4 0 1 26 7 41 37 34 34 8 25 31 25 29
10 2 7 34 45 52 66 74 107 123 109 105 119 79 18 0 0 0 0 0 0 9 1 0 1 0 0 0 0 2 4 0 16 15 19 22 16 35 14 28 32 23 25
0 7 30 35 34 20 2 0 1 2 54 67 157 16 0 0 0 0 0 0 0 0 11 5 7 0 0 0 0 0 0 0 4 1 6 8 23 14 15 27 36 32 29
19 24 5 0 0 8 0 0 0 0 0 0 0 0 0 0 0 0 0 0 0 0 0 0 0 0 0 1 0 0 0 1 45 7 5 12 26 33 43 4 20 38 39
20 30 15 0 0 0 0 0 0 0 0 0 0 0 0 0 0 0 0 0 0 0 0 0 9 2 5 3 13 11 21 1 24 23 26 18 28 11 14 23 11 7 24
9 30 39 17 3 0 0 0 0 0 0 0 0 0 0 0 0 0 0 0 0 0 0 25 20 16 9 4 0 13 20 7 22 19 11 7 15 4 4 21 1 1 14
24 0 0 9 15 21 6 0 0 0 0 0 0 0 0 0 0 0 0 0 0 0 0 22 21 15 7 1 0 4 9 19 10 13 5 0 5 12 10 10 3 22 9
0 8 10 1 3 25 15 47 0 0 0 0 0 0 0 0 0 0 0 0 0 0 3 4 0 0 2 0 0 4 6 11 22 5 5 8 11 7 5 9 8 6 13
1 0 0 0 0 0 19 32 13 20 3 0 0 0 0 0 0 0 0 0 17 8 4 4 0 0 1 1 0 7 2 0 22 0 2 9 12 11 8 7 6 7 5
0 0 0 4 4 0 2 11 2 5 12 1 0 0 0 0 0 0 0 22 22 15 5 5 2 0 2 0 0 3 0 0 4 1 2 10 11 9 6 6 4 1 0
0 0 0 0 1 1 2 2 2 13 23 13 0 0 0 0 25 24 30 28 17 21 13 10 5 1 0 0 0 0 0 0 0 0 3 7 8 8 8 6 4 3 9
3 7 0 0 0 0 0 2 3 7 7 8 10 0 0 0 30 35 22 24 24 18 24 21 2 0 0 0 0 0 0 0 0 6 0 3 7 8 7 5 3 5 2
3 0 0 0 0 0 0 0 1 0 6 9 9 4 0 13 35 28 35 37 31 26 24 21 0 0 0 0 0 0 0 0 0 0 1 1 5 8 6 5 6 4 4
0 0 0 0 0 0 3 1 4 0 0 19 13 10 18 38 45 41 46 56 51 38 23 25 0 0 0 0 0 0 0 0 0 0 0 0 6 6 5 6 6 6 4
0 0 0 0 0 0 3 0 14 0 0 18 30 34 38 50 66 84 66 65 57 38 35 33 4 0 0 0 0 0 0 0 0 0 0 4 4 4 3 7 5 6 2
0 0 0 0 0 2 10 10 12 24 27 29 45 49 42 52 55 80 87 53 72 42 44 43 6 0 0 0 0 0 0 0 0 0 0 1 4 1 2 7 4 5 1
0 0 0 0 1 0 7 12 21 25 25 22 55 66 48 64 39 45 70 63 51 52 40 33 10 0 0 0 0 0 0 0 0 0 0 1 1 0 0 5 4 0 2
CIN
-0 -1 -4 -0 -0 -1 -1 -1 -1 -2 -1 -1 -2 -1 -2 -4 -3 -1 -9 -6 -9 -12 -19 -18 -22 -11 -12 -7 -13 -7 -10 -2 -0 -1 -4 -0 -1 -10 -15 -15 -9 -9 -6
-1 -0 -0 -0 -1 -0 -0 -0 -1 -1 -6 -4 -2 -0 -2 -8 -0 -5 -3 -21 -12 -13 -9 -5 -3 -3 -7 -5 -11 -5 -8 -0 -9 -1 -7 -6 -15 -13 -8 -10 -10 -9 -14
-0 -0 -0 -0 -0 -0 -5 -1 -0 -0 -2 -11 -7 -4 -0 -1 -2 -5 -32 -15 -7 -7 -1 -0 -4 -3 -6 -0 -4 -4 -3 -6 -3 -0 -7 -8 -19 -23 -23 -36 -34 -34 -19
-1 -0 -0 -0 -0 -3 -0 -2 -0 -1 -0 -1 -4 -3 -0 -0 -0 -0 -0 -1 -1 -0 -0 -0 -0 -0 -0 -0 -4 -2 -3 -4 -8 -4 -8 -6 -16 -22 -31 -9 -0 -35 -36
-0 -0 -0 -0 -0 -0 -0 -0 -1 -2 -0 -0 -3 -1 -0 -0 -0 -0 -4 -0 -1 -0 -0 -0 -0 -0 -0 -0 -0 -0 -0 -0 -5 -9 -6 -9 -17 -13 -6 -12 -12 -14 -36
-0 -0 -0 -0 -0 -0 -0 -0 -0 -0 -1 -0 -0 -1 -0 -0 -0 -0 -1 -0 -0 -3 -3 -6 -6 -5 -3 -9 -0 -16 -0 -0 -0 -0 -3 -4 -3 -6 -0 -0 -1 -3 -0
-1 -0 -0 -0 -0 -0 -0 -0 -0 -0 -0 -1 -1 -1 -5 -0 -0 -0 -0 -2 -12 -4 -3 -9 -0 -2 -0 -0 -0 -0 -16 -28 -29 -8 -2 -1 -4 -12 -17 -4 -0 -8 -9
-1 -0 -0 -0 -0 -0 -0 -0 -0 -0 -1 -4 -3 -2 -7 -0 -0 -0 -0 -15 -6 -5 -36 -0 -0 -0 -0 -0 -0 -0 -12 -27 -40 -24 -14 -13 -5 -37 -45 -12 -12 -16 -25
-0 -0 -0 -0 -0 -0 -1 -0 -1 -3 -1 -1 -2 -12 -6 -0 -0 -0 -0 -39 -23 -44 -63 -0 -0 -0 -0 -0 -4 -7 -8 -9 -3 -0 -0 -0 -0 -18 -23 -19 -10 -4 -3
-0 -0 -24 -32 -0 -0 -4 -6 -12 -14 -10 -38 -11 -30 -0 -0 -0 -0 -0 -0 -10 -11 -12 -15 -0 -0 -0 -0 -0 -33 -0 -12 -17 -15 -24 -16 -14 -27 -39 -23 -15 -1 -1
-9 -22 -9 -2 -3 -5 -9 -22 -8 -8 -2 -3 -4 -14 -15 -0 -0 -0 -0 -0 -0 -10 -2 -0 -10 -0 -0 -0 -0 -68 -57 -0 -37 -20 -20 -11 -25 -22 -20 -13 -23 -14 -4
-0 -20 -13 -12 -8 -2 -8 -0 -9 -19 -17 -21 -8 -17 -0 -0 -0 -0 -0 -0 -0 -0 -14 -27 -48 -0 -0 -0 -0 -0 -0 -26 -31 -12 -28 -14 -8 -9 -16 -15 -16 -20 -14
-19 -1 -1 -0 -0 -10 -0 -0 -0 -0 -0 -0 -0 -0 -0 -0 -0 -0 -0 -0 -0 -0 -3 -0 -0 -0 -0 -10 -0 -0 -0 -28 -19 -3 -3 -10 -7 -17 -14 -19 -14 -21 -8
-1 -0 -4 -0 -0 -0 -0 -0 -0 -0 -0 -0 -0 -0 -0 -0 -0 -0 -0 -0 -0 -0 -0 -0 -61 -7 -5 -19 -25 -12 -30 -22 -19 -13 -4 -13 -6 -2 -4 -6 -4 -7 -3
-0 -1 -1 -9 -13 -0 -0 -0 -0 -0 -0 -0 -0 -0 -0 -0 -0 -0 -0 -0 -0 -0 -0 -52 -15 -13 -8 -12 -9 -18 -19 -23 -16 -35 -18 -4 -1 -8 -2 -2 -7 -0 -2
-1 -0 -0 -1 -1 -2 -32 -0 -0 -0 -0 -0 -0 -0 -0 -0 -0 -0 -0 -0 -0 -0 -0 -9 -7 -7 -7 -4 -0 -7 -8 -10 -25 -22 -6 -3 -0 -0 -0 -0 -3 -2 -1
-0 -10 -3 -5 -3 -1 -4 -8 -0 -0 -0 -0 -0 -0 -0 -0 -0 -0 -0 -0 -0 -0 -8 -9 -0 -0 -7 -0 -0 -5 -6 -12 -16 -12 -11 -0 -0 -0 -0 -1 -0 -0 -0
-0 -0 -5 -0 -0 -0 -2 -1 -3 -6 -0 -0 -0 -0 -0 -0 -0 -0 -0 -0 -4 -4 -3 -2 -0 -0 -4 -4 -0 -3 -6 -0 -4 -0 -0 -0 -0 -0 -0 -0 -0 -0 -0
-0 -0 -0 -4 -0 -0 -3 -2 -1 -2 -1 -2 -0 -0 -0 -0 -0 -0 -0 -10 -2 -3 -1 -1 -3 -1 -3 -3 -0 -1 -0 -0 -1 -0 -0 -0 -0 -0 -0 -0 -0 -0 -0
-0 -0 -0 -0 -3 -0 -1 -0 -1 -2 -2 -2 -0 -0 -0 -0 -7 -4 -3 -4 -2 -1 -2 -1 -2 -5 -0 -0 -0 -0 -0 -0 -0 -0 -0 -0 -0 -0 -0 -0 -0 -0 -1
-1 -7 -0 -0 -0 -0 -0 -1 -1 -2 -1 -1 -12 -0 -0 -0 -5 -1 -2 -2 -2 -2 -3 -2 -2 -0 -0 -0 -0 -0 -0 -0 -0 -0 -1 -0 -0 -0 -0 -0 -0 -1 -0
-6 -0 -0 -0 -0 -0 -0 -0 -0 -0 -1 -0 -1 -9 -0 -0 -2 -1 -3 -1 -1 -4 -4 -2 -2 -0 -0 -0 -0 -0 -0 -0 -0 -0 -1 -0 -0 -0 -0 -0 -0 -0 -0
-0 -0 -0 -0 -0 -0 -1 -0 -0 -0 -0 -1 -2 -0 -1 -1 -2 -4 -2 -3 -2 -4 -4 -3 -0 -0 -0 -0 -0 -0 -0 -0 -0 -0 -0 -0 -0 -0 -0 -0 -0 -0 -0
-0 -0 -0 -0 -0 -0 -1 -0 -0 -0 -1 -0 -2 -1 -1 -1 -3 -3 -6 -2 -6 -0 -6 -5 -14 -0 -0 -0 -0 -0 -0 -0 -0 -0 -0 -0 -0 -0 -0 -0 -0 -0 -0
-0 -0 -0 -0 -0 -1 -0 -0 -0 -1 -1 -0 -0 -1 -1 -2 -1 -2 -4 -4 -5 -3 -1 -3 -12 -0 -0 -0 -0 -0 -0 -0 -0 -0 -0 -0 -0 -2 -1 -0 -0 -0 -1
-0 -0 -0 -0 -0 -0 -1 -0 -1 -0 -2 -2 -0 -2 -13 -1 -0 -4 -2 -1 -2 -3 -2 -4 -9 -0 -0 -0 -0 -0 -0 -0 -0 -0 -0 -0 -0 -0 -0 -0 -0 -0 -0
Wind_Speed
10 8 7 8 7 7 8 9 9 9 9 10 9 9 9 8 11 12 10 8 9 7 6 6 4 2 3 4 4 3 3 3 6 5 4 6 5 6 6 5 6 5 4
9 9 11 9 9 7 7 7 9 9 8 9 7 8 8 9 8 8 9 9 9 7 6 7 8 6 6 5 4 5 4 5 4 7 5 4 5 6 6 7 6 6 5
11 12 11 11 9 10 10 11 8 10 11 8 8 9 10 9 6 8 8 9 7 10 10 10 9 9 7 6 5 5 5 5 4 3 3 2 2 3 5 5 5 5 5
9 11 11 14 8 8 9 8 9 9 13 13 13 13 12 12 10 11 10 10 8 10 8 8 9 9 8 8 5 4 4 4 4 5 4 2 2 4 3 4 7 7 6
11 11 11 8 11 12 12 11 12 12 11 12 10 11 11 11 9 9 10 10 9 9 9 8 6 5 6 5 4 5 5 4 3 3 4 4 3 3 3 3 3 5 7
10 8 9 10 10 9 9 10 9 7 8 8 8 10 11 10 15 16 10 7 7 5 6 5 4 6 9 6 9 9 7 4 4 3 2 3 4 3 4 6 6 5 4
7 7 8 8 8 8 8 8 8 7 7 7 8 9 9 9 12 13 15 4 4 2 3 6 8 4 9 8 11 13 10 10 10 4 5 4 5 5 5 8 8 7 6
6 6 7 8 8 7 7 5 5 4 4 4 5 6 6 7 12 12 13 4 4 3 8 7 8 8 7 8 8 8 7 5 6 4 3 5 4 5 5 5 8 7 6
6 7 6 6 6 5 6 7 7 5 4 3 4 7 8 7 12 14 13 6 3 8 6 4 6 7 11 12 8 10 8 6 3 4 7 9 10 11 8 4 6 7 5
5 4 4 5 7 5 6 4 4 5 3 3 1 5 6 5 11 16 16 9 9 5 3 2 5 4 10 12 8 6 6 6 7 8 6 5 6 6 3 3 4 5 4
4 4 5 3 4 5 6 7 4 4 1 2 3 4 5 6 7 12 14 8 7 6 4 4 4 5 8 13 10 6 4 4 6 3 4 6 6 6 6 5 5 3 3
2 4 5 3 5 6 10 11 11 12 7 7 5 5 7 9 11 14 14 10 11 7 7 7 6 12 10 10 10 11 11 10 3 3 5 5 5 5 6 6 3 5 2
5 6 8 7 8 8 8 10 9 10 9 9 8 9 6 7 8 14 16 15 11 7 6 13 16 16 15 10 12 15 12 5 3 6 4 6 5 4 5 6 6 5 2
2 3 5 5 5 6 5 5 6 6 6 7 7 6 8 7 6 7 8 9 11 11 13 13 7 9 9 6 6 3 3 5 6 5 6 6 7 7 7 5 4 5 5
3 4 0 5 6 4 3 3 4 3 2 4 4 5 5 6 6 8 8 8 9 10 12 6 5 6 7 7 7 6 5 6 7 7 6 7 7 7 7 7 7 6 5
3 3 3 3 3 2 6 4 5 3 3 7 4 2 1 5 9 12 13 15 19 17 6 7 7 7 8 8 8 8 8 7 7 7 7 8 7 6 6 7 6 4 6
3 5 4 3 5 2 3 2 4 4 7 8 10 8 7 9 13 14 16 15 15 9 8 7 8 9 8 8 9 8 8 7 7 8 10 9 6 7 7 6 6 7 4
1 6 5 2 3 5 4 3 3 2 3 6 9 10 10 11 12 15 15 16 7 8 9 9 8 9 9 9 9 9 9 9 7 7 8 8 8 7 6 6 5 5 5
5 5 6 7 0 4 5 4 4 3 3 3 5 2 7 9 12 14 14 6 8 8 9 10 9 10 10 10 10 10 10 10 10 7 9 7 7 7 6 6 6 6 6
4 5 6 6 4 5 4 5 5 4 3 3 5 5 5 9 6 7 7 7 8 8 8 9 9 10 11 11 11 11 10 10 11 7 9 9 7 6 6 7 6 5 3
3 5 7 6 4 5 7 5 4 4 4 5 4 2 4 3 5 7 7 7 7 8 8 9 10 10 10 11 11 11 10 10 10 9 8 9 8 6 6 6 5 3 3
8 2 4 4 3 4 3 6 6 7 7 4 5 3 4 3 6 6 6 6 7 7 7 8 9 9 10 10 11 11 10 10 11 11 10 8 7 6 6 5 4 3 4
8 3 5 5 4 4 3 5 3 3 5 6 5 5 5 5 5 5 5 5 5 6 6 7 9 8 9 9 10 10 10 10 9 10 9 8 7 6 5 4 3 3 3
10 2 4 4 2 4 4 4 5 2 4 5 4 4 4 4 4 5 5 5 5 6 6 6 7 11 10 10 10 10 9 8 7 8 11 8 8 7 4 3 3 3 2
3 4 5 4 5 4 5 5 7 6 6 7 4 4 4 4 4 4 4 4 4 5 5 6 6 10 12 15 16 18 13 10 10 9 7 8 9 9 6 4 4 4 4
6 5 4 4 5 6 6 5 5 5 6 6 5 6 7 5 5 4 3 3 4 4 5 5 8 13 14 12 15 15 16 11 10 12 7 7 8 7 6 5 5 3 5
Wind_Direction
5 355 343 352 342 347 346 343 335 324 313 305 328 323 341 338 347 345 350 355 360 14 21 34 20 335 306 353 337 312 290 270 291 320 353 339 329 315 300 292 287 286 269
0 4 358 359 352 355 351 332 324 334 330 322 328 333 334 340 330 340 353 346 350 346 15 14 18 18 27 28 5 354 15 11 353 331 325 325 312 315 297 302 300 293 287
14 3 357 348 0 0 5 349 344 349 334 356 347 350 346 344 342 2 348 334 349 27 36 34 24 25 25 17 1 2 357 355 337 276 296 294 292 318 309 297 275 269 265
9 5 352 348 20 356 357 351 349 351 11 14 15 2 355 340 18 359 345 9 50 53 43 37 20 25 16 6 360 21 5 327 317 323 320 324 289 298 309 333 340 331 308
12 3 354 341 15 13 11 1 17 26 21 18 17 22 16 24 20 11 23 27 33 39 34 24 32 17 10 351 341 341 336 342 344 336 2 326 292 311 318 308 320 314 318
10 5 357 2 19 14 9 16 16 6 22 28 17 30 44 38 13 10 24 52 57 42 34 23 360 28 356 306 280 286 285 290 302 311 304 295 315 337 338 331 325 329 324
18 9 9 11 21 16 18 22 10 23 49 25 29 41 40 21 2 354 350 346 41 56 37 21 8 29 21 344 333 321 274 265 254 283 292 313 318 340 329 332 331 321 302
18 14 22 16 13 12 24 4 9 26 54 51 29 45 41 25 355 343 335 291 299 89 56 38 26 10 2 345 320 296 308 337 243 260 296 319 307 304 293 305 304 288 313
23 18 24 11 28 8 357 351 352 17 9 25 54 43 32 17 355 347 346 328 308 100 83 51 50 358 339 342 331 4 16 21 23 305 284 292 291 297 284 316 316 328 333
36 14 358 340 328 341 321 339 305 302 288 281 358 66 49 31 10 359 0 15 17 38 61 84 72 352 318 322 336 349 350 346 347 351 334 319 334 15 33 279 299 338 333
358 344 316 303 359 335 317 302 339 319 22 14 103 138 100 39 19 359 354 353 360 344 16 355 324 307 294 307 316 301 297 302 315 350 349 358 357 345 341 347 350 354 324
274 245 271 337 357 39 23 7 13 359 11 14 36 63 58 32 25 4 339 324 328 325 354 330 314 325 304 276 299 300 324 302 62 17 1 5 347 352 336 320 356 347 337
267 53 59 42 18 4 61 27 15 5 6 11 16 12 32 37 11 358 350 346 337 339 326 327 300 291 286 292 251 268 292 10 337 19 5 355 352 343 336 351 341 26 322
57 109 129 106 76 35 32 69 36 18 9 17 1 22 2 11 5 346 342 334 336 335 338 316 342 352 4 355 353 349 35 10 47 21 14 6 350 360 349 359 333 353 331
17 339 91 159 144 142 103 21 74 49 5 21 4 1 1 349 334 309 302 314 313 307 318 305 3 357 1 2 357 3 1 12 36 34 19 10 4 355 342 340 345 331 322
12 70 353 2 10 18 165 149 34 72 282 299 254 63 338 257 297 302 300 312 314 316 313 8 4 3 3 3 358 0 2 24 39 14 26 18 343 333 330 329 327 346 325
349 324 348 352 358 345 336 145 173 230 261 274 281 277 257 274 300 305 312 329 301 312 5 10 7 1 2 6 356 356 2 10 25 39 14 347 338 332 324 322 331 328 325
301 250 305 23 10 328 336 349 39 176 189 198 238 245 264 263 284 298 312 322 13 19 6 4 10 4 1 2 356 356 7 6 16 43 12 343 338 334 331 332 325 325 327
7 5 335 319 68 280 301 348 26 29 8 58 47 291 285 261 249 276 288 358 8 20 13 0 11 8 2 4 0 358 10 8 358 30 356 336 333 331 327 324 316 316 308
152 252 264 292 307 355 0 359 5 351 356 40 83 19 347 343 346 24 19 16 14 16 16 4 10 15 6 4 3 355 8 4 347 13 348 338 329 327 327 324 323 325 352
272 195 242 285 11 33 346 346 344 349 5 6 99 126 271 311 334 22 23 8 18 15 20 10 16 18 10 4 4 354 7 352 347 343 340 336 326 334 332 320 321 2 7
299 11 301 310 27 14 342 308 13 354 351 15 9 152 282 309 24 19 18 15 14 23 23 21 25 20 13 6 1 356 358 349 341 336 336 334 325 337 332 330 5 18 10
288 319 325 338 30 337 256 315 338 9 343 340 27 9 7 15 14 29 12 13 17 26 25 36 35 21 19 9 2 355 3 343 331 332 333 329 338 339 336 350 27 22 41
282 20 333 337 350 326 336 326 326 320 289 353 16 14 9 9 21 26 26 12 33 14 30 44 49 29 23 14 2 354 8 343 325 328 329 334 341 344 343 7 35 39 42
310 10 333 349 330 349 339 351 352 346 0 359 9 8 1 8 17 30 35 19 23 31 27 42 59 36 22 16 6 355 352 338 336 321 331 346 349 355 358 43 29 45 33
19 21 347 349 11 3 337 353 336 352 16 325 6 28 351 358 17 5 52 30 16 29 31 36 64 53 27 15 2 346 342 354 345 334 339 359 2 6 7 40 36 26 47